This demonstration page uses our WeatherBlox Daily Observations layout. Learn more.

Left ArrowRight Arrow

40.92501, -98.34201

Hourly Observations for January 21, 2015

Temp ( °F °C ) Dew Point ( °F °C ) Humidity (%) Winds ( mph kmh ) Pressure ( in mb ) Visibility ( mi km ) Precip ( " mm )
12:53 am 00:53 Clear 27 -2.8 23 -5 85 85 W 8 13 30.27 1025 10 16 0.00 0.00
1:53 am 01:53 Clear 26 -3.3 22 -5.6 84 84 W 8 13 30.18 1022 10 16 0.00 0.00
3:53 am 03:53 Clear 27 -2.8 23 -5 85 85 W 9 15 30.21 1023 10 16 0.00 0.00
4:53 am 04:53 Clear 26 -3.3 23 -5 88 88 W 7 11 30.22 1023 10 16 0.00 0.00
5:53 am 05:53 Clear 27 -2.8 23 -5 85 85 WNW 9 15 30.24 1024 10 16 0.00 0.00
6:53 am 06:53 Clear 26 -3.3 22 -5.6 84 84 W 10 17 30.26 1025 10 16 0.00 0.00
7:53 am 07:53 Sunny 26 -3.3 21 -6.1 81 81 W 9 15 30.27 1025 10 16 0.00 0.00
8:53 am 08:53 Sunny 29 -1.7 22 -5.6 75 75 W 13 20 30.29 1026 10 16 0.00 0.00
9:53 am 09:53 Sunny 34 1.1 24 -4.4 67 67 WNW 15 24 30.29 1026 10 16 0.00 0.00
10:53 am 10:53 Sunny 40 4.4 25 -3.9 55 55 NW 16 26 30.30 1026 10 16 0.00 0.00
11:53 am 11:53 Sunny 42 5.6 24 -4.4 49 49 WNW 13 20 30.30 1026 10 16 0.00 0.00
12:53 pm 12:53 Partly Cloudy N/A N/A N/A NW 21 33 N/A 10 16 0.00 0.00
1:53 pm 13:53 Mostly Cloudy N/A N/A N/A NNW 20 31 N/A 10 16 0.00 0.00
2:53 pm 14:53 Cloudy 40 4.4 23 -5 51 51 NNW 21 33 30.29 1026 10 16 0.00 0.00
3:53 pm 15:53 Cloudy 39 3.9 25 -3.9 57 57 N 13 20 30.31 1027 10 16 0.00 0.00
4:53 pm 16:53 Cloudy 36 2.2 26 -3.3 67 67 N 14 22 30.35 1028 10 16 0.00 0.00
5:53 pm 17:53 Cloudy 34 1.1 25 -3.9 70 70 NNW 10 17 30.37 1028 10 16 0.00 0.00
6:53 pm 18:53 Cloudy 34 1.1 25 -3.9 70 70 NNW 9 15 30.40 1029 10 16 0.00 0.00
7:53 pm 19:53 Cloudy 33 0.6 23 -5 66 66 N 13 20 30.42 1030 10 16 0.00 0.00
8:53 pm 20:53 Cloudy 32 0 23 -5 69 69 NNW 9 15 30.45 1031 10 16 0.00 0.00
9:15 pm 21:15 Cloudy 32 0 23 -5 69 69 NNW 10 17 30.42 1030 10 16 0.00 0.00
9:26 pm 21:26 Cloudy 32 0 23 -5 69 69 NNW 10 17 30.45 1031 10 16 0.00 0.00
9:53 pm 21:53 Cloudy 32 0 23 -5 69 69 NNW 12 19 30.45 1031 10 16 0.00 0.00
10:13 pm 22:13 Cloudy 32 0 24 -4.4 73 73 N 14 22 30.45 1031 10 16 0.00 0.00
10:20 pm 22:20 Cloudy 30 -1 25 -4 80 80 N 14 22 30.48 1032 10 16 0.00 0.00
10:53 pm 22:53 Cloudy 31 -0.6 25 -3.9 79 79 NNW 13 20 30.44 1031 10 16 0.00 0.00
11:10 pm 23:10 Cloudy 30 -1 25 -4 80 80 NNW 10 17 30.48 1032 10 16 0.00 0.00
11:28 pm 23:28 Cloudy 30 -1 25 -4 80 80 NNW 10 17 30.48 1032 10 16 0.00 0.00
11:53 pm 23:53 Cloudy 30 -1.1 25 -3.9 82 82 NNW 10 17 30.45 1031 10 16 0.00 0.00

Powered by AerisWeather